Location: �terpigny
(49.8910°N, 2.9249°E)
Time: 01:05:03
(UTC+00:00)

CUTE 1.7 + AOD 2 - Pass Details

Date: 03 July 2022
Orbit: 589 x 608 km, 97.7° (Epoch: 07 August)

Event Time Altitude Azimuth Distance (km) Brightness Sun altitude
Rises 02:27:33 0° 30° (NNE) 2,852 ? -9.4°
Reaches altitude 10° 02:30:47 10° 57° (ENE) 1,938 ? -9.1°
Maximum altitude 02:32:55 14° 88° (E) 1,701 ? -8.9°
Drops below altitude 10° 02:35:04 10° 119° (ESE) 1,924 ? -8.7°
Sets 02:38:14 0° 146° (SE) 2,815 ? -8.4°
